Location: Badger Flat Campground
(37.2691°N, 119.1162°W)
Time: 14:44:59
(UTC+00:00)

Daily predictions for brighter satellites

Satellite Brightness Start Highest point End
(mag) Time Altitude Azimuth Time Altitude Azimuth Time Altitude Azimuth
Cosmos 1937 Rocket 4.0 12:08:54 37° SSE 12:10:38 55° ESE 12:15:39 10° NNE
Cosmos 1605 Rocket 4.4 12:21:14 44° NNW 12:21:14 44° NNW 12:25:27 10° N
Cosmos 1356 Rocket 4.1 12:20:51 55° ESE 12:20:51 55° ESE 12:24:37 10° SSE
STARLINK-51 4.4 12:24:45 49° ESE 12:24:45 49° ESE 12:28:35 10° ENE
STARLINK-30 4.3 12:26:21 51° SE 12:26:21 51° SE 12:30:16 10° ENE
Cosmos 858 Rocket 4.4 12:25:15 48° S 12:26:45 84° ESE 12:31:57 10° NNE
STARLINK-33 4.2 12:27:56 53° SE 12:27:56 53° SE 12:31:55 10° ENE
Cosmos 1697 Rocket 4.1 12:30:49 24° SSW 12:30:49 24° SSW 12:33:09 10° S
Cosmos 2360 4.2 12:29:28 63° WSW 12:29:28 63° WSW 12:34:51 10° S
STARLINK-50 4.1 12:29:31 55° SE 12:29:31 55° SE 12:33:35 10° NE
STARLINK-56 4.0 12:32:42 59° SE 12:32:48 59° SE 12:36:53 10° NE
CZ-3B R/B 3.9 12:31:56 16° S 12:32:54 17° SSE 12:37:23 10° SE
Cosmos 2278 4.2 12:34:54 42° SW 12:34:54 42° SW 12:39:09 10° S
Starlink (trailer) 3.9 12:34:29 61° SSE 12:34:40 62° SE 12:38:46 10° NE
STARLINK-26 3.7 12:36:15 73° ESE 12:36:15 73° ESE 12:40:08 10° NE
ATLAS 2AS CENTAUR R/B 4.1 12:29:18 11° NNW 12:36:07 37° NE 12:42:33 10° ESE
STARLINK-38 3.8 12:35:57 63° SSE 12:36:09 64° SE 12:40:16 10° NE
STARLINK-65 3.8 12:37:34 64° SSE 12:37:51 67° SE 12:41:58 10° NE
OAO 3 Rocket 3.2 12:37:52 64° SW 12:38:17 68° S 12:43:03 10° E
STARLINK-61 3.9 12:40:04 55° NNE 12:40:04 55° NNE 12:43:22 10° NE
PAYLOAD A 4.3 12:36:17 10° N 12:41:04 51° NW 12:41:04 51° NW
STARLINK-69 3.6 12:42:23 68° S 12:42:48 77° SE 12:46:56 10° NE
STARLINK-66 3.6 12:43:59 65° SSW 12:44:30 78° SE 12:48:39 10° NE
STARLINK-41 3.6 12:45:30 64° SSW 12:46:05 80° SE 12:50:14 10° NE
PSLV R/B 4.4 12:42:48 10° NNE 12:46:39 58° E 12:50:34 10° S
STARLINK-64 3.5 12:47:10 64° SW 12:47:45 84° SE 12:51:54 10° NE
In-Cosmos 22 Rocket 4.0 12:43:56 10° S 12:49:16 83° W 12:54:46 10° N
STARLINK-70 3.5 12:48:43 61° SW 12:49:24 86° SE 12:53:33 10° NE
STARLINK-68 3.5 12:50:32 63° SW 12:51:11 87° NW 12:55:20 10° NE
ATLAS CENTAUR R/B 2.1 12:47:37 10° SSW 12:52:30 65° ESE 12:57:18 10° NE
Cosmos 2082 Rocket 4.0 12:55:03 16° NNW 12:55:03 16° NNW 12:56:45 10° N
STARLINK-58 3.5 12:51:48 58° SW 12:52:34 87° NW 12:56:44 10° NE
Shenzhou-11 Module 3.6 12:54:07 25° NE 12:54:07 25° NE 12:55:49 10° ENE
STARLINK-62 3.4 12:53:42 57° WSW 12:54:28 82° NW 12:58:37 10° NE
STARLINK-63 3.4 12:55:08 53° WSW 12:56:03 82° NW 13:00:13 10° NE
Cosmos 2112 Rocket 4.2 12:54:54 40° WNW 12:56:14 49° WSW 13:01:21 10° S
Cosmos 158 Rocket 3.7 12:53:37 26° NNW 12:56:23 78° WSW 13:01:14 10° SSE
Meteor 2-2 Rocket 4.4 12:54:44 34° NW 12:56:34 44° W 13:01:53 10° SSW
Cosmos 1408 Rocket 4.4 12:53:09 10° SSE 12:57:18 50° E 13:01:29 10° NNE
STARLINK 3.5 12:56:20 45° SW 12:57:32 88° NW 13:01:41 10° NE
Lacrosse 5 3.8 12:58:45 15° NNW 12:58:45 15° NNW 13:01:01 10° N
Meteor PRIRODA 3.4 12:55:34 10° N 12:59:13 74° WNW 13:02:50 10° SSW
STARLINK-72 3.5 12:58:10 46° WSW 12:59:19 80° NW 13:03:28 10° NE
Cosmos 1459 Rocket 3.9 12:54:13 10° S 13:00:22 86° W 13:06:40 10° N
Cosmos 1408 3.3 12:58:03 10° S 13:01:40 56° E 13:05:17 10° NNE
STARLINK-59 3.5 13:01:33 44° WSW 13:02:43 71° NW 13:06:52 10° NE
Cosmos 1680 Rocket 4.0 13:02:21 35° W 13:02:46 35° W 13:07:33 10° SSW
STARLINK-57 3.5 13:03:11 42° WSW 13:04:25 69° NW 13:08:34 10° NE
Cosmos 2298 Rocket 4.1 12:59:41 10° SSW 13:04:59 79° ESE 13:10:18 10° NNE
STARLINK-28 3.5 13:06:22 39° WSW 13:07:43 64° NW 13:11:50 10° NE
Cosmos 2151 2.9 13:03:47 10° SSW 13:08:03 66° W 13:12:21 10° N
H-2A R/B 3.2 13:06:53 10° SSW 13:08:24 15° SSE 13:10:50 10° ESE
STARLINK-53 3.6 13:07:08 38° WSW 13:08:33 63° NW 13:12:40 10° NE
Cosmos 2016 Rocket 4.2 13:02:59 10° S 13:09:11 76° E 13:15:30 10° N
STARLINK-75 3.7 13:08:05 40° W 13:09:15 55° NW 13:13:20 10° NE
Delta 2 Rocket 4.3 13:06:55 22° SW 13:09:34 50° SSE 13:14:28 10° E
CZ-2C R/B 3.1 13:06:03 10° N 13:09:49 30° WNW 13:09:49 30° WNW
STARLINK-54 3.6 13:09:34 36° WSW 13:11:03 60° NW 13:15:09 10° NE
Cosmos 1766 Rocket 3.4 13:07:40 10° SSW 13:11:57 65° W 13:16:16 10° N
CZ-3B R/B 3.4 13:08:39 10° SW 13:12:52 18° S 13:15:43 10° SE
ASTEX 1 3.9 13:08:34 10° SSW 13:13:07 37° W 13:17:44 10° NNW
Okean 3 Rocket 3.8 13:10:30 10° SSW 13:14:50 45° W 13:19:10 10° N
STARLINK-37 3.7 13:14:01 32° W 13:15:40 54° NW 13:19:46 10° NE
STARLINK-55 3.7 13:14:15 31° WSW 13:15:58 55° NW 13:20:03 10° NE
STARLINK-24 3.8 13:15:50 30° W 13:17:35 53° NW 13:21:40 10° NE
STARLINK-34 3.8 13:15:59 30° W 13:17:42 52° NW 13:21:46 10° NE
SJ 16-02 3.0 13:20:24 17° NNW 13:20:24 17° NNW 13:22:03 10° NNW
STARLINK-81 3.7 13:17:11 27° WSW 13:19:11 55° NW 13:23:16 10° NE
ALOS 2.4 13:15:41 10° NNE 13:20:22 77° ESE 13:25:01 10° S
MOS 1-B 4.3 13:15:21 10° N 13:21:09 76° WNW 13:26:54 10° SSW
COSMO-SKYMED 1 2.5 13:17:15 10° S 13:21:34 83° WSW 13:25:57 10° NNW
STARLINK-77 3.8 13:20:22 25° WSW 13:22:31 52° NW 13:26:34 10° NE
COSMOS 2455 2.8 13:16:47 10° NNW 13:22:49 89° NE 13:28:50 10° SSE
STARLINK-25 3.8 13:22:03 24° WSW 13:24:15 50° NW 13:28:18 10° NE
STARLINK-71 4.0 13:24:04 24° W 13:26:07 44° NW 13:30:06 10° NE
Cosmos 2360 Rocket 3.5 13:21:53 10° N 13:27:12 39° ENE 13:32:28 10° SE
STARLINK-79 3.9 13:25:10 22° WSW 13:27:29 47° NW 13:31:30 10° NE
SL-16 R/B 2.2 13:23:15 10° NNW 13:28:57 84° WSW 13:34:37 10° SSE
STARLINK-78 3.9 13:26:50 21° W 13:29:13 45° NW 13:33:13 10° NE
Cosmos 2100 Rocket 4.2 13:23:20 10° SSW 13:29:13 45° W 13:35:07 10° N
Cosmos 1892 3.6 13:26:21 10° SW 13:29:35 27° WNW 13:32:50 10° NNW
Helios 1A Rocket 2.9 13:26:42 10° NNE 13:30:48 84° ESE 13:34:51 10° SSW
STARLINK-49 4.0 13:30:01 20° W 13:32:32 43° NW 13:36:30 10° NE
Cosmos 1980 Rocket 3.4 13:31:06 19° WNW 13:32:43 21° W 13:36:51 10° SSW
STARLINK-27 4.1 13:31:36 19° W 13:34:12 41° NW 13:38:08 10° NE
Cosmos 1606 4.1 13:31:27 10° N 13:35:02 40° E 13:38:38 10° SSE
SL-08 R/B 4.4 13:29:03 10° S 13:35:11 79° W 13:41:17 10° N
STARLINK-74 4.1 13:33:13 18° W 13:35:53 40° NW 13:39:49 10° NE
STARLINK-39 4.2 13:34:51 17° W 13:37:34 39° NW 13:41:29 10° NE
SL-4 R/B 3.6 13:33:25 11° NW 13:37:38 34° NNE 13:42:00 10° E
Cosmos 2322 Rocket 2.2 13:32:04 10° NNW 13:37:45 83° WSW 13:43:25 10° SSE
Meteor 2-3 Rocket 4.4 13:32:59 10° S 13:38:36 60° E 13:44:17 10° NNE
STARLINK 4.2 13:36:24 17° W 13:39:11 38° NW 13:43:05 10° NE
OAO 2 Rocket 3.8 13:35:21 16° W 13:39:15 52° SSW 13:44:09 10° ESE
STARLINK-42 4.3 13:37:15 17° W 13:39:58 36° NW 13:43:49 10° NNE
Abrixas rocket 2.8 13:38:42 21° WNW 13:40:04 33° NNW 13:42:51 10° NE
Cosmos 1484 Rocket 3.6 13:37:08 10° N 13:40:39 30° WNW 13:44:10 10° SW
Cosmos 1437 2.4 13:37:46 10° S 13:40:47 82° W 13:43:51 10° N
STARLINK-21 4.3 13:38:54 16° W 13:41:48 36° NW 13:45:40 10° NNE
STARLINK-45 4.5 13:41:52 15° W 13:44:38 32° NNW 13:48:22 10° NNE
Cosmos 1802 Rocket 4.3 13:39:39 10° SSW 13:45:46 46° WNW 13:51:55 10° N
USA 116 3.2 13:44:04 10° S 13:47:11 61° W 13:50:33 10° NNW
NOSS 3-4 (A) 4.2 13:40:10 10° NNW 13:47:21 74° ENE 13:55:10 10° SE
NOSS 3-4 (C) 4.2 13:40:16 10° NNW 13:47:27 73° ENE 13:55:15 10° SE
STARLINK-76 4.4 13:44:26 13° W 13:47:34 33° NW 13:51:21 10° NNE
Cosmos 1825 2.4 13:44:31 10° SSW 13:48:07 46° W 13:51:46 10° N
STARLINK 4.5 13:46:03 13° W 13:49:15 32° NNW 13:53:00 10° NNE
STARLINK-32 4.5 13:47:40 12° W 13:50:57 31° NNW 13:54:40 10° NNE
Cosmos 1400 Rocket 3.9 13:48:29 10° N 13:52:27 49° E 13:56:19 10° SSE
Cosmos 2228 Rocket 3.5 13:50:52 10° N 13:55:27 71° E 14:00:01 10° SSE
Okean O Rocket 1.7 13:51:43 10° N 13:55:55 50° WNW 14:00:07 10° SSW
Cosmos 2061 Rocket 4.4 13:54:42 10° SW 14:00:28 39° WNW 14:06:14 10° N
Chandra Rocket (1) 4.4 13:51:59 10° W 14:04:20 34° SSW 14:08:41 10° SE
FENGYUN 3A 4.0 14:01:08 10° N 14:06:12 42° WNW 14:11:15 10° SW
H-2A R/B 3.5 14:02:44 10° NNE 14:06:24 57° E 14:10:01 10° S
COSMOS 2487 3.7 14:04:01 10° WSW 14:06:39 20° WNW 14:09:17 10° NNW
USA 267 3.9 14:01:57 10° NE 14:08:27 63° SE 14:14:54 10° SSW
Cosmos 1125 Rocket 3.6 14:03:20 10° SSW 14:08:32 57° WNW 14:13:44 10° N
CZ-4B R/B 3.4 14:04:51 10° N 14:10:02 48° WNW 14:15:17 10° SW
Cosmos 972 Rocket 4.0 14:06:06 10° SSW 14:11:02 71° WNW 14:16:26 10° NNE
Cosmos 2333 Rocket 3.9 14:07:00 10° N 14:12:10 32° ENE 14:17:17 10° ESE
Radarsat Rocket 3.9 14:06:37 10° NNE 14:12:26 75° WNW 14:18:27 10° SSW
ATLAS 3B CENTAUR R/B 4.4 14:00:56 10° WSW 14:18:28 53° S 14:25:53 10° ESE
